TimeCDT,TemperatureF,Dew PointF,Humidity,Sea Level PressureIn,VisibilityMPH,Wind Direction,Wind SpeedMPH,Gust SpeedMPH,PrecipitationIn,Events,Conditions,WindDirDegrees,DateUTC
12:15 AM,55.4,53.6,94,29.68,10.0,Calm,Calm,-,N/A,,Clear,0,2013-05-22 05:15:00
12:35 AM,53.6,51.8,94,29.69,10.0,Calm,Calm,-,N/A,,Clear,0,2013-05-22 05:35:00
12:55 AM,55.4,53.6,94,29.68,10.0,Calm,Calm,-,N/A,,Scattered Clouds,0,2013-05-22 05:55:00
1:15 AM,53.6,51.8,94,29.69,10.0,Calm,Calm,-,N/A,,Mostly Cloudy,0,2013-05-22 06:15:00
1:35 AM,53.6,51.8,94,29.69,10.0,Calm,Calm,-,N/A,,Overcast,0,2013-05-22 06:35:00
1:55 AM,53.6,51.8,94,29.69,10.0,Calm,Calm,-,N/A,,Overcast,0,2013-05-22 06:55:00
2:15 AM,55.4,53.6,94,29.68,1.0,Calm,Calm,-,N/A,,Overcast,0,2013-05-22 07:15:00
2:35 AM,55.4,53.6,94,29.68,0.5,Calm,Calm,-,N/A,Fog,Fog,0,2013-05-22 07:35:00
2:55 AM,55.4,53.6,94,29.68,0.8,Calm,Calm,-,N/A,,Overcast,0,2013-05-22 07:55:00
3:15 AM,55.4,53.6,94,29.68,0.5,NE,3.5,-,N/A,Fog,Fog,50,2013-05-22 08:15:00
3:35 AM,55.4,53.6,94,29.68,0.5,Calm,Calm,-,N/A,Fog,Fog,0,2013-05-22 08:35:00
3:55 AM,55.4,53.6,94,29.68,0.2,Calm,Calm,-,N/A,Fog,Fog,0,2013-05-22 08:55:00
4:15 AM,55.4,53.6,94,29.68,0.2,Calm,Calm,-,N/A,Fog,Fog,0,2013-05-22 09:15:00
4:35 AM,55.4,55.4,100,29.68,0.5,Calm,Calm,-,N/A,Fog,Fog,0,2013-05-22 09:35:00
4:55 AM,57.2,55.4,94,29.68,0.8,Calm,Calm,-,N/A,,Overcast,0,2013-05-22 09:55:00
5:15 AM,57.2,55.4,94,29.69,5.0,Calm,Calm,-,N/A,,Overcast,0,2013-05-22 10:15:00
5:35 AM,57.2,55.4,94,29.68,7.0,NNE,5.8,-,N/A,,Overcast,20,2013-05-22 10:35:00
5:55 AM,57.2,55.4,94,29.69,7.0,NE,4.6,-,N/A,,Overcast,40,2013-05-22 10:55:00
6:15 AM,57.2,55.4,94,29.70,5.0,NE,4.6,-,N/A,,Overcast,40,2013-05-22 11:15:00
6:35 AM,57.2,55.4,94,29.70,5.0,NNE,4.6,-,N/A,,Overcast,20,2013-05-22 11:35:00
6:55 AM,57.2,55.4,94,29.69,4.0,NNE,4.6,-,N/A,,Overcast,20,2013-05-22 11:55:00
7:15 AM,57.2,55.4,94,29.69,2.5,NNE,4.6,-,N/A,,Overcast,20,2013-05-22 12:15:00
7:35 AM,57.2,55.4,94,29.69,3.0,NNE,5.8,-,N/A,,Overcast,30,2013-05-22 12:35:00
7:55 AM,57.2,55.4,94,29.69,2.0,NNE,5.8,-,N/A,,Overcast,20,2013-05-22 12:55:00
8:15 AM,55.4,53.6,94,29.70,1.0,NNE,5.8,-,N/A,,Overcast,30,2013-05-22 13:15:00
8:35 AM,55.4,53.6,94,29.70,4.0,NNE,5.8,-,N/A,,Overcast,20,2013-05-22 13:35:00
8:55 AM,55.4,53.6,94,29.70,5.0,NNE,6.9,-,N/A,,Overcast,20,2013-05-22 13:55:00
9:15 AM,55.4,53.6,94,29.70,7.0,NE,4.6,-,N/A,,Overcast,40,2013-05-22 14:15:00
9:35 AM,57.2,55.4,94,29.70,7.0,ENE,5.8,-,N/A,,Overcast,70,2013-05-22 14:35:00
9:55 AM,57.2,55.4,94,29.70,7.0,NNE,5.8,-,N/A,,Overcast,20,2013-05-22 14:55:00
10:15 AM,57.2,55.4,94,29.70,7.0,NE,6.9,-,N/A,,Overcast,50,2013-05-22 15:15:00
10:35 AM,57.2,55.4,94,29.71,10.0,NNE,5.8,-,N/A,,Overcast,30,2013-05-22 15:35:00
10:55 AM,57.2,55.4,94,29.71,7.0,NNE,4.6,-,N/A,,Overcast,20,2013-05-22 15:55:00
11:15 AM,57.2,55.4,94,29.71,10.0,NNE,6.9,-,N/A,,Overcast,30,2013-05-22 16:15:00
11:35 AM,57.2,55.4,94,29.71,10.0,North,5.8,-,N/A,,Overcast,10,2013-05-22 16:35:00
11:55 AM,57.2,55.4,94,29.71,10.0,NNE,6.9,-,N/A,Rain,Light Rain,20,2013-05-22 16:55:00
12:15 PM,57.2,55.4,94,29.71,10.0,NNE,9.2,-,N/A,Rain,Light Rain,30,2013-05-22 17:15:00
12:35 PM,57.2,55.4,94,29.71,7.0,NNE,9.2,-,N/A,Rain,Light Rain,30,2013-05-22 17:35:00
12:55 PM,57.2,55.4,94,29.71,7.0,NNE,6.9,-,N/A,Rain,Light Rain,20,2013-05-22 17:55:00
1:15 PM,57.2,55.4,94,29.72,7.0,NNE,8.1,-,N/A,Rain,Light Rain,30,2013-05-22 18:15:00
1:35 PM,57.2,53.6,88,29.72,7.0,NE,8.1,-,N/A,Rain,Light Rain,40,2013-05-22 18:35:00
1:55 PM,55.4,53.6,94,29.73,10.0,NNE,8.1,-,N/A,Rain,Light Rain,20,2013-05-22 18:55:00
2:15 PM,55.4,53.6,94,29.73,10.0,NE,10.4,-,N/A,Rain,Light Rain,40,2013-05-22 19:15:00
2:35 PM,55.4,53.6,94,29.74,10.0,NNE,8.1,-,N/A,Rain,Rain,30,2013-05-22 19:35:00
2:55 PM,55.4,53.6,94,29.74,10.0,NNE,9.2,-,N/A,Rain,Rain,30,2013-05-22 19:55:00
3:15 PM,55.4,53.6,94,29.74,10.0,NNE,5.8,-,N/A,Rain,Rain,20,2013-05-22 20:15:00
3:35 PM,55.4,53.6,94,29.75,10.0,NNE,9.2,-,N/A,Rain,Light Rain,20,2013-05-22 20:35:00
3:55 PM,55.4,53.6,94,29.75,10.0,NNE,9.2,-,N/A,Rain,Light Rain,30,2013-05-22 20:55:00
4:15 PM,55.4,53.6,94,29.75,10.0,NNE,9.2,16.1,N/A,Rain,Light Rain,30,2013-05-22 21:15:00
4:35 PM,55.4,53.6,94,29.76,10.0,NNE,6.9,-,N/A,Rain,Light Rain,30,2013-05-22 21:35:00
4:55 PM,55.4,51.8,88,29.77,10.0,NNE,9.2,-,N/A,Rain,Light Rain,20,2013-05-22 21:55:00
5:15 PM,53.6,51.8,94,29.77,10.0,NNE,9.2,-,N/A,Rain,Light Rain,30,2013-05-22 22:15:00
5:35 PM,53.6,51.8,94,29.77,10.0,NE,10.4,19.6,N/A,Rain,Light Rain,40,2013-05-22 22:35:00
5:55 PM,53.6,51.8,94,29.78,10.0,NNE,13.8,20.7,N/A,Rain,Light Rain,20,2013-05-22 22:55:00
6:15 PM,53.6,50.0,88,29.78,10.0,NNE,16.1,24.2,N/A,Rain,Light Rain,20,2013-05-22 23:15:00
6:35 PM,51.8,50.0,94,29.79,10.0,NNE,11.5,-,N/A,Rain,Light Rain,20,2013-05-22 23:35:00
6:55 PM,51.8,48.2,88,29.80,10.0,NNE,12.7,23.0,N/A,Rain,Rain,30,2013-05-22 23:55:00
7:15 PM,51.8,48.2,88,29.81,10.0,NNE,13.8,17.3,N/A,Rain,Light Rain,20,2013-05-23 00:15:00
7:35 PM,50.0,48.2,94,29.82,10.0,NNE,15.0,19.6,N/A,Rain,Light Rain,20,2013-05-23 00:35:00
7:55 PM,50.0,46.4,87,29.82,10.0,NNE,16.1,21.9,N/A,Rain,Light Rain,20,2013-05-23 00:55:00
8:15 PM,50.0,46.4,87,29.83,10.0,NNE,16.1,-,N/A,Rain,Light Rain,30,2013-05-23 01:15:00
8:35 PM,50.0,46.4,87,29.84,10.0,NNE,13.8,-,N/A,Rain,Light Rain,30,2013-05-23 01:35:00
8:55 PM,50.0,46.4,87,29.84,10.0,NE,11.5,23.0,N/A,Rain,Light Rain,40,2013-05-23 01:55:00
9:15 PM,50.0,46.4,87,29.85,10.0,NE,13.8,19.6,N/A,Rain,Rain,40,2013-05-23 02:15:00
9:35 PM,50.0,46.4,87,29.85,10.0,NE,12.7,-,N/A,Rain,Light Rain,40,2013-05-23 02:35:00
9:55 PM,50.0,46.4,87,29.86,10.0,NE,15.0,20.7,N/A,Rain,Rain,40,2013-05-23 02:55:00
10:15 PM,50.0,48.2,94,29.87,10.0,NE,13.8,24.2,N/A,Rain,Light Rain,40,2013-05-23 03:15:00
10:35 PM,50.0,48.2,94,29.88,10.0,NE,13.8,20.7,N/A,Rain,Light Rain,40,2013-05-23 03:35:00
10:55 PM,50.0,46.4,87,29.89,10.0,NNE,16.1,20.7,N/A,Rain,Rain,30,2013-05-23 03:55:00
11:15 PM,50.0,46.4,87,29.90,10.0,NE,16.1,24.2,N/A,Rain,Light Rain,40,2013-05-23 04:15:00
11:35 PM,50.0,46.4,87,29.91,10.0,NNE,12.7,18.4,N/A,Rain,Light Rain,30,2013-05-23 04:35:00
11:55 PM,48.2,46.4,93,29.91,10.0,NE,17.3,25.3,N/A,,Light Drizzle,40,2013-05-23 04:55:00